Weather History for PHMK - June, 2013

Change the Weather History Date:

Tuesday, June 18, 2013

  Actual Average (PHOG) Record (PHOG)
Temperature  
Mean Temperature 76 °F 78 °F  
Max Temperature 82 °F 87 °F 92 °F (1969)
Min Temperature 71 °F 70 °F 63 °F (1950)
Degree Days  
Heating Degree Days 0 0  
Month to date heating degree days 0  
Since 1 June heating degree days 0  
Since 1 July heating degree days 0  
Cooling Degree Days 12 13  
Month to date cooling degree days 228  
Year to date cooling degree days 1487  
Since 1 June cooling degree days 228  
Growing Degree Days 26 (Base 50)    
Moisture  
Dew Point 69 °F    
Average Humidity 80    
Maximum Humidity 97    
Minimum Humidity 62    
Precipitation  
Precipitation 0.00 in 0.01 in 0.13 in (1990)
Month to date precipitation 0.11  
Year to date precipitation 9.61  
Snow  
Snow 0.00 in - - ()
Month to date snowfall  
Since 1 June snowfall  
Since 1 July snowfall  
Snow Depth -    
Sea Level Pressure  
Sea Level Pressure 30.06 in    
Wind  
Wind Speed 13 mph (NE)    
Max Wind Speed 22 mph    
Max Gust Speed 31 mph    
Visibility 10 miles    
Events Rain    
T = Trace of Precipitation, MM = Missing Value Source: NWS Daily Summary

Daily Weather History Graph

Daily Weather History Graph

Search for Another Location

Airport or City:

Trip Planner

Search our weather history database for the weather conditions in past years. The results will help you decide how hot, cold, wet, or windy it might be!

Date:

Astronomy

Jun. 18, 2013 Rise Set
Actual Time 5:47 AM HST 7:12 PM HST
Civil Twilight 5:22 AM HST 7:37 PM HST
Nautical Twilight 4:52 AM HST 8:06 PM HST
Astronomical Twilight 4:21 AM HST 8:37 PM HST
Moon 2:34 PM HST (6/18) 1:32 AM HST (6/18)
Length of Visible Light 14h 14m
Length of Day
13h 25m
Waxing Gibbous, 73% of the Moon is Illuminated
Jun 18
Waxing Gibbous
Jun 23
Full
Jun 29
Last Quarter
Jul 7
New
Jul 15
First Quarter

Hourly Weather History & Observations

Time (HST) Temp. Heat Index Dew Point Humidity Pressure Visibility Wind Dir Wind Speed Gust Speed Precip Events Conditions
12:54 AM 72.0 °F - 69.1 °F 91% 30.09 in 10.0 mi NNE 10.4 mph 20.7 mph 0.00 in   Scattered Clouds
1:50 AM 71.6 °F - 69.8 °F 94% 30.06 in 9.0 mi NE 9.2 mph 20.7 mph 0.00 in Rain Light Rain
1:54 AM 72.0 °F - 71.1 °F 97% 30.06 in 9.0 mi NE 10.4 mph 20.7 mph 0.00 in Rain Light Rain
2:18 AM - - - N/A% 30.05 in 10.0 mi NNE 12.7 mph - 0.00 in   Mostly Cloudy
2:54 AM 71.1 °F - 69.1 °F 93% 30.05 in 10.0 mi NE 11.5 mph 18.4 mph 0.00 in   Scattered Clouds
3:54 AM 71.1 °F - 69.1 °F 93% 30.04 in 10.0 mi NNE 11.5 mph - 0.00 in   Scattered Clouds
4:54 AM - - - N/A% 30.04 in 10.0 mi NNE 12.7 mph 23.0 mph 0.00 in   Partly Cloudy
5:54 AM 72.0 °F - 69.1 °F 91% 30.06 in 10.0 mi NE 9.2 mph - N/A   Clear
6:54 AM 73.9 °F - 69.1 °F 85% 30.07 in 10.0 mi NE 11.5 mph 19.6 mph N/A   Scattered Clouds
7:54 AM 77.0 °F - 68.0 °F 74% 30.08 in 10.0 mi NE 13.8 mph 20.7 mph N/A   Partly Cloudy
8:54 AM 79.0 °F - 68.0 °F 69% 30.08 in 10.0 mi NE 13.8 mph 20.7 mph N/A   Partly Cloudy
9:54 AM 82.4 °F 85.4 °F 68.0 °F 62% 30.08 in 10.0 mi NE 11.5 mph 24.2 mph N/A   Scattered Clouds
10:54 AM 80.1 °F 82.9 °F 69.1 °F 69% 30.08 in 10.0 mi NE 19.6 mph 29.9 mph N/A   Scattered Clouds
11:54 AM 81.0 °F 84.1 °F 69.1 °F 67% 30.06 in 10.0 mi NE 21.9 mph 31.1 mph N/A   Scattered Clouds
12:54 PM 82.0 °F 85.5 °F 69.1 °F 65% 30.05 in 10.0 mi NNE 17.3 mph 26.5 mph N/A   Scattered Clouds
1:54 PM 80.1 °F 83.6 °F 71.1 °F 74% 30.05 in 10.0 mi NE 18.4 mph 28.8 mph 0.00 in Rain Light Rain
2:54 PM 79.0 °F - 69.1 °F 72% 30.03 in 10.0 mi NNE 20.7 mph 31.1 mph 0.00 in   Scattered Clouds
3:54 PM 79.0 °F - 68.0 °F 69% 30.03 in 10.0 mi NE 18.4 mph 28.8 mph N/A   Clear
4:54 PM 78.1 °F - 68.0 °F 71% 30.03 in 10.0 mi NE 15.0 mph 28.8 mph N/A   Scattered Clouds
5:54 PM 77.0 °F - 68.0 °F 74% 30.04 in 10.0 mi NNE 15.0 mph 27.6 mph N/A   Scattered Clouds
6:54 PM 73.9 °F - 68.0 °F 82% 30.05 in 10.0 mi NE 18.4 mph 29.9 mph N/A   Partly Cloudy
7:54 PM 73.0 °F - 68.0 °F 84% 30.06 in 10.0 mi NE 17.3 mph 27.6 mph N/A   Partly Cloudy
8:54 PM 73.0 °F - 68.0 °F 84% 30.09 in 10.0 mi NE 12.7 mph 23.0 mph N/A   Overcast
9:54 PM 73.0 °F - 70.0 °F 90% 30.09 in 10.0 mi NE 12.7 mph 20.7 mph N/A   Mostly Cloudy
10:54 PM 73.0 °F - 69.1 °F 87% 30.09 in 10.0 mi NNE 11.5 mph 19.6 mph N/A   Overcast
11:54 PM 73.0 °F - 68.0 °F 84% 30.08 in 10.0 mi NE 8.1 mph - N/A   Mostly Cloudy